Regional Weather Roundup
Issued by NWS

Home | Current Version | Previous Version | Graphics & Text | Print | Product List | Glossary On
Versions: 1 2 3 4 5 6 7 8 9 10 11 12 13 14 15 16 17 18 19 20 21 22 23 24 25 26 27 28 29 30 31 32 33 34 35 36 37 38 39 40 41 42 43 44 45 46 47 48 49 50
000
ASUS43 KFSD 010710
RWRSD

WEATHER ROUNDUP FOR SOUTH DAKOTA
NATIONAL WEATHER SERVICE SIOUX FALLS SD
200 AM CDT WED OCT 01 2014

NOTE: "FAIR" INDICATES FEW OR NO CLOUDS BELOW 12,000 FEET WITH NO
SIGNIFICANT WEATHER AND/OR OBSTRUCTIONS TO VISIBILITY.


SDZ001>005-009-010-012>017-010800-
NORTHWEST AND NORTH CENTRAL SOUTH DAKOTA

CITY           SKY/WX    TMP DP  RH WIND       PRES   REMARKS
BUFFALO          N/A     52  49  89 W16       29.59R
FAITH            N/A     57  49  74 W16G26    29.64S
MOBRIDGE       CLEAR     58  52  80 SW8       29.58R
$$

SDZ012>016-024>037-041>051-057-063-072>074-010800-
SOUTHWEST AND SOUTH CENTRAL SOUTH DAKOTA

CITY           SKY/WX    TMP DP  RH WIND       PRES   REMARKS
RAPID CTY ARPT CLOUDY    53  45  74 CALM      29.73R
PIERRE         PTCLDY    54  47  77 S7        29.64R
CUSTER         PTCLDY    46  39  76 W9        29.78F
ELLSWORTH AFB  CLOUDY    53  45  74 NW3       29.72R
PHILIP         PTCLDY    49  46  90 W7        29.69R
PINE RIDGE     MOCLDY    52  48  86 CALM      29.75R
WINNER         FAIR      58  46  64 CALM      29.70R
$$

SDZ004>011-016>023-039-040-010800-
NORTHEAST SOUTH DAKOTA

CITY           SKY/WX    TMP DP  RH WIND       PRES   REMARKS
ABERDEEN       CLEAR     59  50  72 S15G23    29.63R
WATERTOWN      MOCLDY    60  58  92 S14       29.69S
SISSETON         N/A     62  60  93 SW14      29.64R
$$

SDZ017-020-022-023-036>040-048>070-010800-
SOUTHEAST SOUTH DAKOTA

CITY           SKY/WX    TMP DP  RH WIND       PRES   REMARKS
SIOUX FALLS    CLOUDY    63  60  90 S14       29.74F
HURON          CLOUDY    61  59  93 S6        29.67S
CHAMBERLAIN    PTCLDY    47  45  91 CALM      29.69R
MITCHELL       MOCLDY    63  60  90 S13G20    29.68F
YANKTON        CLOUDY    63  61  94 SE8       29.72S
$$

ABBREVIATIONS USED IN REMARKS
   TC - TEMPERATURE IN CELSIUS
  WCI - WIND CHILL INDEX
   HX - HEAT INDEX
  VSB - VISIBILITY




USA.gov is the U.S. government's official web portal to all federal, state and local government web resources and services.